contact:dominique.lefevre@mio.osupytheas.fr, maurice.libes@osupytheas.fr, didier.mallarino@osupytheas.fr
Project:EMSO http://www.emso-fr.org/EMSO-France
Depth: 2436.0 m
Title:EMSO Ligure Ouest : Data MII capteur AQUADOPP
Date,Latitude,Longitude,X_East,Y_North,Z_Up,Amplitude_X,Amplitude_Y,Amplitude_Z,Batterie,SoundSpeed,Heading,Pitch,Roll,Pressure,TIS,Speed,Direction
, degrees North, degrees East, m.s-1, m.s-1,m.s-1, 1, 1, 1, Volt, m.s-1, degree, degree, degree, dbar, degree_C, m.s-1, degree
2021-08-21T00:04:03,42.805,6.029,-0.037,-0.003,0.017,101.0,102.0,100.0,13.3,1505.2,328.5,-0.8,1.8,2470.48,13.28,0.037,265.4
2021-08-21T00:07:03,42.805,6.029,-0.013,0.014,0.025,102.0,102.0,101.0,13.4,1505.2,329.2,-0.8,1.8,2470.476,13.28,0.019,317.1
2021-08-21T00:10:03,42.805,6.029,-0.04,0.015,-0.009,101.0,102.0,101.0,13.4,1505.2,326.6,-0.7,1.8,2470.538,13.28,0.042,290.6
2021-08-21T00:13:03,42.805,6.029,-0.041,0.02,0.027,101.0,103.0,99.0,13.4,1505.2,330.1,-0.7,1.8,2470.483,13.28,0.045,296.0
2021-08-21T00:16:03,42.805,6.029,-0.027,0.017,0.014,102.0,102.0,101.0,13.4,1505.2,326.6,-0.7,1.8,2470.529,13.28,0.031,302.2
2021-08-21T00:19:03,42.805,6.029,-0.018,0.025,0.011,101.0,102.0,101.0,13.4,1505.2,327.7,-0.7,1.8,2470.512,13.28,0.03,324.2
2021-08-21T00:22:03,42.805,6.029,-0.022,0.008,-0.02,101.0,101.0,101.0,13.4,1505.2,328.1,-0.7,1.8,2470.49,13.28,0.023,290.0
2021-08-21T00:25:03,42.805,6.029,-0.016,0.017,0.012,101.0,102.0,100.0,13.4,1505.2,326.9,-0.8,1.8,2470.505,13.28,0.023,316.7
2021-08-21T00:28:03,42.805,6.029,-0.031,0.019,-0.006,100.0,103.0,100.0,13.4,1505.2,326.7,-0.8,1.8,2470.489,13.29,0.036,301.5
2021-08-21T00:31:03,42.805,6.029,-0.015,0.024,-0.012,102.0,102.0,100.0,13.3,1505.2,329.3,-0.7,1.8,2470.518,13.29,0.028,328.0
2021-08-21T00:34:03,42.805,6.029,-0.031,0.011,-0.004,101.0,101.0,102.0,13.3,1505.2,325.8,-0.7,1.8,2470.471,13.29,0.032,289.5
2021-08-21T00:37:03,42.805,6.029,-0.032,0.003,-0.004,101.0,103.0,101.0,13.3,1505.2,326.3,-0.7,1.9,2470.491,13.29,0.032,275.4
2021-08-21T00:40:03,42.805,6.029,-0.037,0.001,-0.022,103.0,102.0,100.0,13.4,1505.2,327.4,-0.8,1.9,2470.47,13.29,0.037,271.5
2021-08-21T00:43:03,42.805,6.029,-0.048,0.026,0.007,101.0,102.0,101.0,13.4,1505.2,328.6,-0.8,1.8,2470.458,13.29,0.054,298.4
2021-08-21T00:46:03,42.805,6.029,-0.018,-0.001,-0.033,102.0,103.0,101.0,13.4,1505.2,328.9,-0.8,1.8,2470.526,13.29,0.018,266.8
2021-08-21T00:49:03,42.805,6.029,-0.006,0.014,-0.014,102.0,103.0,100.0,13.3,1505.2,328.0,-0.8,1.8,2470.509,13.29,0.015,336.8
2021-08-21T00:52:03,42.805,6.029,-0.034,0.027,0.018,101.0,101.0,100.0,13.4,1505.2,324.8,-0.7,1.8,2470.482,13.29,0.043,308.5
2021-08-21T00:55:03,42.805,6.029,-0.009,0.015,-0.024,102.0,103.0,101.0,13.3,1505.2,330.2,-0.8,1.8,2470.495,13.29,0.017,329.0
2021-08-21T00:58:03,42.805,6.029,-0.023,0.018,0.01,103.0,102.0,101.0,13.3,1505.2,328.5,-0.7,1.8,2470.527,13.29,0.029,308.0
2021-08-21T01:04:03,42.805,6.029,-0.035,0.022,-0.015,103.0,103.0,103.0,13.3,1505.2,327.8,-0.8,1.8,2470.544,13.28,0.041,302.2
2021-08-21T01:07:03,42.805,6.029,-0.043,0.012,-0.005,101.0,102.0,101.0,13.4,1505.2,327.1,-0.7,1.8,2470.49,13.28,0.044,285.6
2021-08-21T01:10:03,42.805,6.029,-0.035,0.021,-0.047,102.0,102.0,101.0,13.4,1505.2,327.2,-0.8,1.8,2470.469,13.28,0.04,301.0
2021-08-21T01:13:03,42.805,6.029,-0.025,0.04,-0.003,102.0,102.0,101.0,13.4,1505.2,328.9,-0.8,1.8,2470.49,13.28,0.047,328.0
2021-08-21T01:16:03,42.805,6.029,-0.024,0.006,-0.001,102.0,102.0,100.0,13.4,1505.2,329.0,-0.7,1.8,2470.475,13.29,0.024,284.0
2021-08-21T01:19:03,42.805,6.029,-0.043,0.031,-0.011,102.0,102.0,101.0,13.4,1505.2,325.5,-0.8,1.8,2470.508,13.29,0.053,305.8
2021-08-21T01:22:03,42.805,6.029,-0.034,0.021,0.0,102.0,102.0,99.0,13.4,1505.2,328.1,-0.7,1.8,2470.503,13.29,0.039,301.7
2021-08-21T01:25:03,42.805,6.029,-0.026,0.004,0.0,101.0,104.0,100.0,13.4,1505.2,329.4,-0.8,1.8,2470.481,13.29,0.026,278.7
2021-08-21T01:28:03,42.805,6.029,-0.033,0.022,0.01,100.0,100.0,102.0,13.4,1505.2,327.3,-0.8,1.8,2470.474,13.29,0.039,303.7
2021-08-21T01:31:03,42.805,6.029,-0.029,0.003,-0.015,101.0,102.0,101.0,13.4,1505.2,325.8,-0.8,1.8,2470.515,13.29,0.029,275.9
2021-08-21T01:34:03,42.805,6.029,-0.022,0.009,0.009,102.0,103.0,100.0,13.4,1505.2,329.6,-0.7,1.8,2470.459,13.29,0.023,292.2
2021-08-21T01:37:03,42.805,6.029,-0.022,0.018,-0.018,102.0,101.0,100.0,13.4,1505.2,329.0,-0.8,1.8,2470.448,13.29,0.028,309.3
2021-08-21T01:40:03,42.805,6.029,-0.025,0.007,-0.027,104.0,102.0,101.0,13.4,1505.2,327.2,-0.8,1.8,2470.458,13.29,0.025,285.6
2021-08-21T01:43:03,42.805,6.029,-0.025,0.004,0.003,103.0,102.0,100.0,13.4,1505.2,326.4,-0.8,1.8,2470.465,13.29,0.025,279.1
2021-08-21T01:46:03,42.805,6.029,-0.012,0.007,0.033,100.0,103.0,100.0,13.4,1505.2,326.4,-0.7,1.8,2470.463,13.29,0.013,300.3
2021-08-21T01:49:03,42.805,6.029,-0.025,0.0,-0.021,101.0,101.0,100.0,13.3,1505.2,330.8,-0.8,1.9,2470.478,13.29,0.025,270.0
2021-08-21T01:52:03,42.805,6.029,-0.002,0.023,-0.005,100.0,102.0,101.0,13.4,1505.2,328.6,-0.8,1.8,2470.471,13.29,0.023,355.0
2021-08-21T01:55:03,42.805,6.029,-0.02,0.02,0.001,100.0,102.0,100.0,13.4,1505.2,328.8,-0.8,1.9,2470.44,13.29,0.028,315.0
2021-08-21T01:58:03,42.805,6.029,0.005,-0.006,-0.01,102.0,102.0,100.0,13.4,1505.2,328.1,-0.8,1.8,2470.457,13.29,0.007,140.2
2021-08-21T02:04:03,42.805,6.029,-0.027,0.001,0.01,101.0,101.0,100.0,13.4,1505.2,328.9,-0.7,1.8,2470.535,13.28,0.027,272.1
2021-08-21T02:07:03,42.805,6.029,-0.031,0.022,-0.008,101.0,102.0,100.0,13.4,1505.2,328.8,-0.8,1.8,2470.505,13.28,0.038,305.4
2021-08-21T02:10:03,42.805,6.029,0.004,-0.005,0.01,102.0,102.0,99.0,13.4,1505.2,327.2,-0.8,1.8,2470.501,13.28,0.006,141.3
2021-08-21T02:13:03,42.805,6.029,-0.021,0.004,-0.007,101.0,102.0,100.0,13.4,1505.2,327.3,-0.8,1.8,2470.506,13.28,0.021,280.8
2021-08-21T02:16:03,42.805,6.029,-0.007,0.002,-0.003,103.0,103.0,100.0,13.4,1505.2,328.5,-0.8,1.8,2470.492,13.28,0.007,285.9
2021-08-21T02:19:03,42.805,6.029,-0.018,-0.002,0.013,102.0,101.0,100.0,13.4,1505.2,327.9,-0.7,1.8,2470.494,13.29,0.018,263.7
2021-08-21T02:22:03,42.805,6.029,0.009,0.004,-0.011,101.0,101.0,101.0,13.3,1505.2,330.7,-0.7,1.8,2470.487,13.29,0.009,66.0
2021-08-21T02:25:03,42.805,6.029,-0.012,-0.001,-0.03,101.0,103.0,99.0,13.3,1505.2,325.4,-0.7,1.8,2470.508,13.29,0.012,265.2
2021-08-21T02:28:03,42.805,6.029,-0.04,0.016,-0.002,102.0,102.0,100.0,13.3,1505.2,328.5,-0.8,1.9,2470.508,13.29,0.043,291.8
2021-08-21T02:31:03,42.805,6.029,-0.029,0.003,-0.009,103.0,102.0,101.0,13.3,1505.2,328.1,-0.7,1.9,2470.504,13.29,0.029,275.9
2021-08-21T02:34:03,42.805,6.029,-0.025,-0.005,-0.024,101.0,101.0,100.0,13.4,1505.2,328.9,-0.7,1.8,2470.506,13.29,0.025,258.7
2021-08-21T02:37:03,42.805,6.029,0.017,0.001,0.001,102.0,102.0,100.0,13.4,1505.2,325.7,-0.7,1.8,2470.468,13.29,0.017,86.6
2021-08-21T02:40:03,42.805,6.029,-0.025,-0.009,0.016,101.0,102.0,99.0,13.4,1505.2,328.1,-0.7,1.8,2470.506,13.29,0.026,250.2
2021-08-21T02:43:03,42.805,6.029,-0.016,-0.004,0.0,103.0,101.0,101.0,13.4,1505.2,329.3,-0.8,1.8,2470.483,13.29,0.016,256.0
2021-08-21T02:46:03,42.805,6.029,-0.028,-0.005,-0.011,102.0,101.0,101.0,13.4,1505.2,326.9,-0.8,1.8,2470.515,13.29,0.028,259.9
2021-08-21T02:49:03,42.805,6.029,-0.016,0.009,-0.011,101.0,102.0,101.0,13.3,1505.2,327.3,-0.7,1.8,2470.484,13.29,0.018,299.4
2021-08-21T02:52:03,42.805,6.029,-0.022,-0.004,-0.046,103.0,102.0,100.0,13.3,1505.2,329.1,-0.8,1.8,2470.497,13.29,0.022,259.7
2021-08-21T02:55:03,42.805,6.029,-0.03,0.027,0.001,102.0,100.0,100.0,13.3,1505.2,325.3,-0.7,1.8,2470.521,13.29,0.04,312.0
2021-08-21T02:58:03,42.805,6.029,-0.024,-0.001,-0.028,103.0,102.0,101.0,13.4,1505.2,329.5,-0.7,1.8,2470.492,13.29,0.024,267.6
2021-08-21T03:04:03,42.805,6.029,-0.009,0.025,-0.004,102.0,102.0,101.0,13.4,1505.2,328.5,-0.7,1.8,2470.535,13.29,0.026,340.2
2021-08-21T03:07:03,42.805,6.029,-0.001,-0.004,-0.009,102.0,103.0,100.0,13.3,1505.2,328.1,-0.8,1.8,2470.527,13.29,0.004,194.0
2021-08-21T03:10:03,42.805,6.029,-0.039,0.031,-0.018,101.0,101.0,100.0,13.4,1505.2,326.1,-0.8,1.8,2470.525,13.29,0.049,308.5
2021-08-21T03:13:03,42.805,6.029,-0.026,0.01,0.003,100.0,102.0,102.0,13.4,1505.2,327.0,-0.8,1.8,2470.526,13.29,0.027,291.0
2021-08-21T03:16:03,42.805,6.029,-0.015,0.018,0.024,101.0,103.0,101.0,13.3,1505.2,327.2,-0.7,1.9,2470.566,13.29,0.023,320.2
2021-08-21T03:19:03,42.805,6.029,-0.05,0.009,-0.012,100.0,103.0,101.0,13.3,1505.2,329.1,-0.7,1.8,2470.565,13.29,0.05,280.2
2021-08-21T03:22:03,42.805,6.029,-0.021,0.028,-0.01,103.0,101.0,101.0,13.4,1505.2,328.2,-0.8,1.8,2470.503,13.29,0.035,323.1
2021-08-21T03:25:03,42.805,6.029,0.001,0.0,-0.014,103.0,103.0,102.0,13.3,1505.2,329.0,-0.8,1.8,2470.542,13.29,0.001,90.0
2021-08-21T03:28:03,42.805,6.029,-0.002,-0.004,-0.032,101.0,103.0,100.0,13.4,1505.2,326.6,-0.8,1.8,2470.576,13.29,0.004,206.6
2021-08-21T03:31:03,42.805,6.029,-0.006,0.0,0.019,102.0,102.0,101.0,13.4,1505.2,326.9,-0.8,1.8,2470.475,13.29,0.006,270.0
2021-08-21T03:34:03,42.805,6.029,-0.027,0.01,0.0,101.0,104.0,100.0,13.4,1505.2,330.4,-0.7,1.8,2470.5,13.29,0.028,290.3
2021-08-21T03:37:03,42.805,6.029,-0.029,-0.005,0.002,101.0,101.0,102.0,13.3,1505.2,327.8,-0.8,1.8,2470.487,13.29,0.029,260.2
2021-08-21T03:40:03,42.805,6.029,-0.022,0.028,-0.013,100.0,103.0,100.0,13.4,1505.2,329.6,-0.7,1.8,2470.504,13.29,0.035,321.8
2021-08-21T03:43:03,42.805,6.029,-0.007,0.012,-0.003,102.0,102.0,101.0,13.4,1505.2,328.6,-0.7,1.8,2470.465,13.29,0.013,329.7
2021-08-21T03:46:03,42.805,6.029,-0.024,0.016,-0.008,102.0,104.0,101.0,13.4,1505.2,326.6,-0.7,1.8,2470.477,13.29,0.028,303.7
2021-08-21T03:49:03,42.805,6.029,-0.026,0.003,0.007,101.0,104.0,101.0,13.4,1505.2,327.7,-0.7,1.8,2470.489,13.29,0.026,276.6
2021-08-21T03:52:03,42.805,6.029,-0.003,0.016,-0.003,104.0,103.0,101.0,13.4,1505.2,328.6,-0.8,1.8,2470.491,13.29,0.016,349.4
2021-08-21T03:55:03,42.805,6.029,-0.031,0.01,-0.002,103.0,103.0,103.0,13.4,1505.2,326.0,-0.8,1.8,2470.467,13.29,0.032,287.9
2021-08-21T03:58:03,42.805,6.029,-0.026,0.044,0.039,102.0,103.0,101.0,13.4,1505.2,327.7,-0.7,1.8,2470.505,13.29,0.051,329.4
2021-08-21T04:04:03,42.805,6.029,0.001,0.001,0.022,103.0,104.0,102.0,13.3,1505.2,326.0,-0.8,1.8,2470.535,13.28,0.001,45.0
2021-08-21T04:07:03,42.805,6.029,-0.017,-0.004,-0.02,104.0,104.0,102.0,13.4,1505.2,329.4,-0.8,1.8,2470.493,13.28,0.017,256.8
2021-08-21T04:10:03,42.805,6.029,-0.026,0.009,-0.005,103.0,105.0,101.0,13.4,1505.2,329.2,-0.7,1.8,2470.528,13.28,0.027,289.1
2021-08-21T04:13:03,42.805,6.029,-0.02,0.016,0.008,102.0,102.0,101.0,13.4,1505.2,326.0,-0.7,1.8,2470.503,13.28,0.025,308.7
2021-08-21T04:16:03,42.805,6.029,-0.027,0.036,0.015,103.0,102.0,101.0,13.3,1505.2,329.8,-0.7,1.8,2470.536,13.28,0.045,323.1
2021-08-21T04:19:03,42.805,6.029,-0.011,0.026,0.0,102.0,103.0,101.0,13.4,1505.2,328.9,-0.8,1.8,2470.575,13.28,0.028,337.1
2021-08-21T04:22:03,42.805,6.029,-0.005,0.032,0.01,101.0,103.0,102.0,13.3,1505.2,325.4,-0.7,1.8,2470.602,13.28,0.032,351.1
2021-08-21T04:25:03,42.805,6.029,-0.013,0.013,0.02,102.0,103.0,101.0,13.3,1505.2,326.5,-0.8,1.8,2470.555,13.28,0.018,315.0
2021-08-21T04:28:03,42.805,6.029,-0.016,0.038,0.018,103.0,104.0,100.0,13.3,1505.2,326.9,-0.8,1.8,2470.597,13.28,0.041,337.2
2021-08-21T04:31:03,42.805,6.029,-0.008,0.01,-0.02,102.0,102.0,101.0,13.4,1505.2,328.8,-0.8,1.8,2470.555,13.28,0.012,321.3
2021-08-21T04:34:03,42.805,6.029,-0.01,0.033,-0.006,101.0,104.0,102.0,13.4,1505.2,329.8,-0.7,1.8,2470.6,13.28,0.034,343.1
2021-08-21T04:37:03,42.805,6.029,-0.003,-0.003,-0.016,103.0,101.0,102.0,13.4,1505.2,326.9,-0.7,1.8,2470.591,13.28,0.004,225.0
2021-08-21T04:40:03,42.805,6.029,-0.009,0.009,0.007,102.0,102.0,101.0,13.4,1505.2,328.7,-0.7,1.8,2470.609,13.28,0.012,315.0
2021-08-21T04:43:03,42.805,6.029,-0.024,0.037,0.001,103.0,102.0,100.0,13.4,1505.2,327.8,-0.8,1.8,2470.58,13.28,0.044,327.0
2021-08-21T04:46:03,42.805,6.029,-0.023,0.005,0.003,102.0,101.0,100.0,13.4,1505.2,329.7,-0.7,1.8,2470.573,13.28,0.023,282.3
2021-08-21T04:49:03,42.805,6.029,-0.027,0.02,-0.02,103.0,101.0,101.0,13.3,1505.2,329.0,-0.7,1.8,2470.614,13.28,0.033,306.5
2021-08-21T04:52:03,42.805,6.029,-0.009,0.027,0.006,103.0,102.0,101.0,13.3,1505.2,330.0,-0.8,1.8,2470.604,13.29,0.028,341.6
2021-08-21T04:55:03,42.805,6.029,0.004,0.025,0.02,102.0,103.0,100.0,13.4,1505.2,328.2,-0.7,1.8,2470.578,13.28,0.025,9.1
2021-08-21T04:58:03,42.805,6.029,-0.002,0.021,0.03,102.0,102.0,101.0,13.4,1505.2,325.3,-0.8,1.8,2470.625,13.29,0.021,354.6
2021-08-21T05:04:03,42.805,6.029,-0.018,0.019,0.004,102.0,102.0,101.0,13.4,1505.2,330.0,-0.8,1.8,2470.684,13.28,0.026,316.5
2021-08-21T05:07:03,42.805,6.029,-0.007,0.016,-0.015,103.0,103.0,101.0,13.4,1505.2,326.1,-0.8,1.8,2470.64,13.28,0.017,336.4
2021-08-21T05:10:03,42.805,6.029,0.007,0.019,0.013,104.0,103.0,102.0,13.4,1505.2,328.7,-0.8,1.9,2470.615,13.28,0.02,20.2
2021-08-21T05:13:03,42.805,6.029,-0.013,0.019,0.006,102.0,104.0,99.0,13.3,1505.2,327.3,-0.8,1.8,2470.652,13.28,0.023,325.6
2021-08-21T05:16:03,42.805,6.029,-0.016,0.01,-0.007,103.0,103.0,102.0,13.4,1505.2,328.5,-0.8,1.8,2470.65,13.28,0.018,302.0
2021-08-21T05:19:03,42.805,6.029,0.002,0.014,0.031,102.0,103.0,102.0,13.4,1505.2,328.3,-0.8,1.8,2470.625,13.28,0.014,8.1
2021-08-21T05:22:03,42.805,6.029,-0.019,0.032,0.018,102.0,103.0,101.0,13.3,1505.2,327.7,-0.8,1.8,2470.609,13.28,0.037,329.3
2021-08-21T05:25:03,42.805,6.029,-0.005,0.028,0.016,102.0,102.0,101.0,13.4,1505.2,327.0,-0.8,1.8,2470.597,13.28,0.028,349.9
2021-08-21T05:28:03,42.805,6.029,-0.027,0.017,0.0,101.0,103.0,101.0,13.4,1505.2,327.2,-0.8,1.8,2470.606,13.28,0.031,302.2
2021-08-21T05:31:03,42.805,6.029,0.004,0.018,0.004,103.0,102.0,101.0,13.4,1505.2,328.7,-0.7,1.8,2470.567,13.28,0.018,12.5
2021-08-21T05:34:03,42.805,6.029,-0.008,0.001,-0.015,103.0,102.0,100.0,13.4,1505.2,328.5,-0.7,1.8,2470.589,13.29,0.008,277.1
2021-08-21T05:37:03,42.805,6.029,-0.028,0.014,0.004,103.0,102.0,101.0,13.4,1505.2,327.7,-0.8,1.8,2470.581,13.28,0.031,296.6
2021-08-21T05:40:03,42.805,6.029,-0.018,0.004,0.018,103.0,101.0,101.0,13.3,1505.2,328.1,-0.8,1.8,2470.607,13.28,0.018,282.5
2021-08-21T05:43:03,42.805,6.029,-0.007,0.003,0.011,103.0,102.0,101.0,13.4,1505.2,329.6,-0.7,1.8,2470.616,13.28,0.007,293.2
2021-08-21T05:46:03,42.805,6.029,-0.01,0.031,0.012,103.0,103.0,102.0,13.3,1505.2,328.8,-0.8,1.8,2470.643,13.29,0.032,342.1
2021-08-21T05:49:03,42.805,6.029,-0.008,0.02,-0.016,103.0,103.0,101.0,13.4,1505.2,328.1,-0.7,1.8,2470.576,13.29,0.021,338.2
2021-08-21T05:52:03,42.805,6.029,-0.005,-0.004,0.02,101.0,102.0,101.0,13.4,1505.2,327.0,-0.7,1.8,2470.587,13.29,0.006,231.3
2021-08-21T05:55:03,42.805,6.029,-0.018,0.016,-0.015,104.0,102.0,101.0,13.4,1505.2,326.9,-0.8,1.8,2470.627,13.29,0.024,311.6
2021-08-21T05:58:03,42.805,6.029,0.01,0.02,0.005,104.0,103.0,102.0,13.4,1505.2,329.0,-0.8,1.8,2470.622,13.29,0.022,26.6
2021-08-21T06:01:03,42.805,6.029,-0.002,0.023,0.01,102.0,104.0,101.0,13.4,1505.2,328.8,-0.7,1.8,2470.618,13.29,0.023,355.0
2021-08-21T06:04:03,42.805,6.029,-0.029,0.001,-0.055,104.0,102.0,100.0,13.4,1505.2,327.4,-0.8,1.8,2470.597,13.29,0.029,272.0
2021-08-21T06:07:03,42.805,6.029,0.006,0.015,0.022,103.0,102.0,101.0,13.4,1505.2,328.0,-0.8,1.8,2470.604,13.29,0.016,21.8
2021-08-21T06:10:03,42.805,6.029,-0.029,0.014,0.017,103.0,104.0,100.0,13.4,1505.2,325.9,-0.8,1.9,2470.623,13.29,0.032,295.8
2021-08-21T06:13:03,42.805,6.029,-0.01,0.02,-0.006,103.0,103.0,101.0,13.3,1505.2,328.2,-0.8,1.8,2470.587,13.29,0.022,333.4
2021-08-21T06:16:03,42.805,6.029,-0.006,0.006,-0.002,104.0,103.0,102.0,13.4,1505.2,326.4,-0.8,1.8,2470.676,13.29,0.008,315.0
2021-08-21T06:19:03,42.805,6.029,-0.004,-0.007,-0.026,102.0,103.0,102.0,13.3,1505.2,325.8,-0.8,1.8,2470.601,13.29,0.008,209.7
2021-08-21T06:22:03,42.805,6.029,-0.036,0.0,-0.008,103.0,103.0,101.0,13.4,1505.2,330.2,-0.8,1.8,2470.573,13.29,0.036,270.0
2021-08-21T06:25:03,42.805,6.029,-0.005,0.013,-0.033,102.0,104.0,101.0,13.3,1505.2,327.2,-0.8,1.8,2470.641,13.29,0.013,339.0
2021-08-21T06:28:03,42.805,6.029,-0.017,0.029,-0.007,104.0,102.0,101.0,13.4,1505.2,328.0,-0.8,1.8,2470.602,13.29,0.033,329.6
2021-08-21T06:31:03,42.805,6.029,-0.017,0.018,-0.006,104.0,103.0,102.0,13.4,1505.2,326.3,-0.7,1.9,2470.617,13.29,0.024,316.6
2021-08-21T06:34:03,42.805,6.029,-0.006,0.02,-0.016,102.0,104.0,100.0,13.4,1505.2,326.6,-0.8,1.8,2470.616,13.29,0.02,343.3
2021-08-21T06:37:03,42.805,6.029,-0.012,0.023,0.009,103.0,103.0,101.0,13.4,1505.2,329.3,-0.8,1.9,2470.602,13.29,0.025,332.4
2021-08-21T06:40:03,42.805,6.029,-0.013,0.0,-0.001,102.0,102.0,101.0,13.4,1505.2,328.2,-0.7,1.8,2470.608,13.29,0.013,270.0
2021-08-21T06:43:03,42.805,6.029,-0.033,0.015,-0.011,103.0,103.0,101.0,13.4,1505.2,329.2,-0.7,1.8,2470.607,13.29,0.036,294.4
2021-08-21T06:46:03,42.805,6.029,-0.022,0.01,0.01,103.0,104.0,101.0,13.4,1505.2,329.0,-0.8,1.8,2470.598,13.29,0.024,294.4
2021-08-21T06:49:03,42.805,6.029,-0.016,0.008,-0.026,103.0,103.0,102.0,13.3,1505.2,326.6,-0.8,1.8,2470.581,13.29,0.017,296.6
2021-08-21T06:52:03,42.805,6.029,0.002,0.021,0.002,103.0,103.0,101.0,13.4,1505.2,326.1,-0.8,1.8,2470.584,13.29,0.021,5.4
2021-08-21T06:55:03,42.805,6.029,0.0,0.025,-0.01,100.0,102.0,102.0,13.4,1505.2,328.9,-0.8,1.8,2470.569,13.29,0.025,0.0
2021-08-21T06:58:03,42.805,6.029,-0.014,-0.003,-0.019,102.0,103.0,102.0,13.4,1505.2,326.4,-0.7,1.8,2470.607,13.29,0.014,257.9
2021-08-21T07:04:03,42.805,6.029,-0.01,0.02,-0.01,102.0,103.0,102.0,13.3,1505.2,326.3,-0.7,1.8,2470.613,13.28,0.022,333.4
2021-08-21T07:07:03,42.805,6.029,-0.011,0.008,-0.001,102.0,104.0,102.0,13.3,1505.2,328.6,-0.8,1.8,2470.596,13.28,0.013,306.0
2021-08-21T07:10:03,42.805,6.029,-0.014,0.001,-0.023,100.0,102.0,102.0,13.4,1505.2,325.7,-0.7,1.8,2470.612,13.28,0.014,274.1
2021-08-21T07:13:03,42.805,6.029,0.016,0.016,0.025,100.0,103.0,102.0,13.3,1505.2,328.3,-0.7,1.8,2470.594,13.28,0.022,45.0
2021-08-21T07:16:03,42.805,6.029,-0.017,0.025,0.003,102.0,104.0,101.0,13.4,1505.2,328.0,-0.7,1.8,2470.582,13.28,0.03,325.8
2021-08-21T07:19:03,42.805,6.029,0.0,0.01,-0.018,103.0,102.0,101.0,13.4,1505.2,329.6,-0.8,1.9,2470.608,13.29,0.01,0.0
2021-08-21T07:22:03,42.805,6.029,-0.006,0.019,-0.004,103.0,102.0,101.0,13.4,1505.2,325.7,-0.8,1.8,2470.604,13.29,0.019,342.5
2021-08-21T07:25:03,42.805,6.029,-0.026,0.018,0.012,103.0,102.0,101.0,13.3,1505.2,329.3,-0.7,1.9,2470.592,13.29,0.031,304.7
2021-08-21T07:28:03,42.805,6.029,-0.014,-0.015,-0.031,103.0,103.0,100.0,13.4,1505.2,328.8,-0.8,1.8,2470.569,13.29,0.02,223.0
2021-08-21T07:31:03,42.805,6.029,-0.006,0.003,-0.02,100.0,102.0,102.0,13.4,1505.2,328.8,-0.8,1.8,2470.598,13.29,0.006,296.6
2021-08-21T07:34:03,42.805,6.029,-0.015,0.014,-0.012,101.0,103.0,102.0,13.4,1505.2,329.6,-0.7,1.8,2470.585,13.29,0.02,313.0
2021-08-21T07:37:03,42.805,6.029,-0.02,0.009,-0.01,103.0,101.0,102.0,13.4,1505.2,327.8,-0.8,1.8,2470.548,13.29,0.021,294.2
2021-08-21T07:40:03,42.805,6.029,-0.008,0.001,0.001,102.0,103.0,101.0,13.4,1505.2,326.9,-0.8,1.8,2470.574,13.29,0.008,277.1
2021-08-21T07:43:03,42.805,6.029,-0.004,0.026,0.025,101.0,103.0,101.0,13.3,1505.2,330.1,-0.7,1.9,2470.568,13.29,0.026,351.3
2021-08-21T07:46:03,42.805,6.029,-0.003,0.012,0.033,103.0,102.0,101.0,13.3,1505.2,328.1,-0.8,1.8,2470.597,13.29,0.012,346.0
2021-08-21T07:49:03,42.805,6.029,0.005,0.004,-0.017,102.0,102.0,101.0,13.4,1505.2,330.5,-0.8,1.8,2470.615,13.29,0.006,51.3
2021-08-21T07:52:03,42.805,6.029,-0.027,0.003,-0.017,104.0,102.0,102.0,13.3,1505.2,326.1,-0.8,1.8,2470.533,13.29,0.027,276.3
2021-08-21T07:55:03,42.805,6.029,-0.032,0.015,0.003,101.0,102.0,102.0,13.4,1505.2,329.1,-0.8,1.8,2470.532,13.29,0.035,295.1
2021-08-21T07:58:03,42.805,6.029,-0.031,0.003,-0.031,102.0,101.0,103.0,13.3,1505.2,329.1,-0.8,1.8,2470.571,13.29,0.031,275.5
2021-08-21T08:04:03,42.805,6.029,-0.004,0.012,0.021,102.0,103.0,101.0,13.4,1505.2,329.7,-0.8,1.8,2470.607,13.28,0.012,341.6
2021-08-21T08:07:03,42.805,6.029,-0.002,0.003,-0.018,102.0,102.0,101.0,13.4,1505.2,326.5,-0.8,1.8,2470.603,13.28,0.003,326.3
2021-08-21T08:10:03,42.805,6.029,-0.011,0.008,-0.004,102.0,102.0,101.0,13.4,1505.2,328.5,-0.8,1.8,2470.554,13.28,0.013,306.0
2021-08-21T08:13:03,42.805,6.029,-0.008,0.013,0.006,101.0,103.0,100.0,13.4,1505.2,329.4,-0.8,1.8,2470.549,13.29,0.015,328.4
2021-08-21T08:16:03,42.805,6.029,-0.007,0.014,-0.014,101.0,102.0,102.0,13.4,1505.2,327.7,-0.7,1.8,2470.571,13.29,0.015,333.4
2021-08-21T08:19:03,42.805,6.029,-0.021,-0.001,-0.024,103.0,102.0,101.0,13.4,1505.2,328.2,-0.7,1.8,2470.567,13.29,0.021,267.3
2021-08-21T08:22:03,42.805,6.029,-0.02,-0.014,-0.009,102.0,102.0,100.0,13.4,1505.2,326.3,-0.7,1.8,2470.562,13.29,0.024,235.0
2021-08-21T08:25:03,42.805,6.029,-0.027,0.032,-0.001,102.0,103.0,101.0,13.4,1505.2,328.4,-0.7,1.8,2470.607,13.29,0.041,319.8
2021-08-21T08:28:03,42.805,6.029,-0.031,0.021,0.029,102.0,102.0,101.0,13.4,1505.2,328.5,-0.8,1.8,2470.547,13.29,0.037,304.1
2021-08-21T08:31:03,42.805,6.029,0.018,0.001,0.008,102.0,103.0,101.0,13.4,1505.2,327.7,-0.8,1.8,2470.554,13.29,0.018,86.8
2021-08-21T08:34:03,42.805,6.029,0.004,0.013,-0.005,104.0,102.0,101.0,13.4,1505.2,325.4,-0.7,1.8,2470.592,13.29,0.013,17.1
2021-08-21T08:37:03,42.805,6.029,-0.044,0.013,-0.03,101.0,103.0,101.0,13.4,1505.2,325.5,-0.7,1.8,2470.55,13.29,0.045,286.5
2021-08-21T08:40:03,42.805,6.029,-0.013,0.011,-0.016,101.0,103.0,102.0,13.3,1505.2,325.1,-0.7,1.8,2470.515,13.29,0.017,310.2
2021-08-21T08:43:03,42.805,6.029,0.006,-0.001,0.015,102.0,102.0,101.0,13.3,1505.2,329.1,-0.7,1.8,2470.516,13.29,0.006,99.5
2021-08-21T08:46:03,42.805,6.029,-0.025,0.019,0.001,101.0,103.0,101.0,13.4,1505.2,328.6,-0.8,1.8,2470.544,13.29,0.031,307.2
2021-08-21T08:49:03,42.805,6.029,-0.01,0.013,0.018,101.0,101.0,101.0,13.3,1505.2,327.1,-0.7,1.8,2470.523,13.29,0.016,322.4
2021-08-21T08:52:03,42.805,6.029,-0.021,-0.005,-0.012,102.0,102.0,100.0,13.4,1505.2,326.1,-0.7,1.8,2470.551,13.29,0.021,256.6
2021-08-21T08:55:03,42.805,6.029,-0.004,0.019,0.011,101.0,102.0,100.0,13.4,1505.2,326.9,-0.8,1.8,2470.55,13.29,0.019,348.1
2021-08-21T08:58:03,42.805,6.029,-0.02,-0.004,-0.004,101.0,102.0,101.0,13.4,1505.2,330.1,-0.7,1.8,2470.545,13.29,0.02,258.7
2021-08-21T09:04:03,42.805,6.029,-0.019,0.008,-0.006,102.0,104.0,101.0,13.4,1505.2,325.8,-0.7,1.8,2470.584,13.28,0.02,292.8
2021-08-21T09:07:03,42.805,6.029,-0.016,0.017,0.0,101.0,103.0,101.0,13.4,1505.2,327.6,-0.8,1.8,2470.549,13.28,0.023,316.7
2021-08-21T09:10:03,42.805,6.029,-0.037,0.0,-0.027,101.0,102.0,101.0,13.4,1505.2,327.7,-0.8,1.8,2470.569,13.28,0.037,270.0
2021-08-21T09:13:03,42.805,6.029,-0.018,0.01,0.017,102.0,102.0,101.0,13.3,1505.2,327.6,-0.7,1.8,2470.539,13.29,0.02,299.1
2021-08-21T09:16:03,42.805,6.029,-0.032,0.011,0.001,103.0,102.0,100.0,13.4,1505.2,331.0,-0.8,1.8,2470.515,13.29,0.033,289.0
2021-08-21T09:19:03,42.805,6.029,-0.016,0.008,0.014,101.0,103.0,101.0,13.4,1505.2,327.5,-0.7,1.8,2470.554,13.29,0.017,296.6
2021-08-21T09:22:03,42.805,6.029,-0.013,0.027,0.002,102.0,103.0,101.0,13.4,1505.2,325.9,-0.7,1.8,2470.542,13.29,0.029,334.3
2021-08-21T09:25:03,42.805,6.029,-0.003,0.031,0.0,104.0,104.0,101.0,13.3,1505.2,329.2,-0.7,1.8,2470.52,13.29,0.031,354.5
2021-08-21T09:28:03,42.805,6.029,0.0,0.017,0.009,105.0,103.0,100.0,13.4,1505.2,328.9,-0.7,1.8,2470.527,13.29,0.017,0.0
2021-08-21T09:31:03,42.805,6.029,-0.022,0.005,-0.035,104.0,103.0,101.0,13.4,1505.2,329.3,-0.7,1.8,2470.518,13.29,0.022,282.8
2021-08-21T09:34:03,42.805,6.029,-0.017,0.008,-0.025,106.0,103.0,100.0,13.4,1505.2,328.7,-0.8,1.8,2470.488,13.29,0.018,295.2
2021-08-21T09:37:03,42.805,6.029,0.003,0.0,0.006,103.0,103.0,100.0,13.3,1505.2,325.9,-0.8,1.8,2470.536,13.29,0.003,90.0
2021-08-21T09:40:03,42.805,6.029,-0.018,-0.008,-0.022,102.0,102.0,103.0,13.4,1505.2,327.0,-0.7,1.8,2470.531,13.29,0.019,246.0
2021-08-21T09:43:03,42.805,6.029,0.0,0.019,0.013,102.0,102.0,101.0,13.4,1505.2,326.9,-0.7,1.8,2470.52,13.29,0.019,0.0
2021-08-21T09:46:03,42.805,6.029,-0.028,0.02,-0.014,101.0,102.0,101.0,13.4,1505.2,329.3,-0.8,1.8,2470.498,13.29,0.034,305.5
2021-08-21T09:49:03,42.805,6.029,0.0,0.0,0.009,102.0,102.0,102.0,13.4,1505.2,329.2,-0.7,1.8,2470.53,13.29,0.0,0.0
2021-08-21T09:52:03,42.805,6.029,-0.016,0.012,-0.008,102.0,102.0,101.0,13.3,1505.2,325.6,-0.8,1.8,2470.523,13.29,0.02,306.9
2021-08-21T09:55:03,42.805,6.029,-0.023,0.007,-0.003,103.0,102.0,100.0,13.4,1505.2,330.4,-0.8,1.8,2470.478,13.29,0.024,286.9